Weather History for Clarksville, TN

Change the Weather History Date:

Saturday, May 25, 2013

  Actual Average Record
Temperature  
Mean Temperature 62 °F -  
Max Temperature 77 °F - 93 °F (1970)
Min Temperature 46 °F - 42 °F (1976)
Degree Days  
Heating Degree Days 3    
Month to date heating degree days 78  
Since 1 July heating degree days 3952  
Cooling Degree Days 0    
Month to date cooling degree days 80  
Growing Degree Days 10 (Base 50)    
Moisture  
Dew Point 47 °F    
Average Humidity 62    
Maximum Humidity 93    
Minimum Humidity 29    
Precipitation  
Precipitation 0.00 in - 1.21 in (2006)
Month to date precipitation 2.63  
Sea Level Pressure  
Sea Level Pressure 30.27 in    
Wind  
Wind Speed 3 mph (East)    
Max Wind Speed 8 mph    
Max Gust Speed 13 mph    
Visibility 10 miles    
Events      
T = Trace of Precipitation, MM = Missing Value Source: NWS Daily Summary

Daily Weather History Graph

Daily Weather History Graph

Search for Another Location

Airport:

Trip Planner

Search our weather history database for the weather conditions in past years. The results will help you decide how hot, cold, wet, or windy it might be!

Date:

Astronomy

May. 25, 2013 Rise Set
Actual Time 5:35 AM CDT 7:58 PM CDT
Civil Twilight 5:05 AM CDT 8:27 PM CDT
Nautical Twilight 4:29 AM CDT 9:04 PM CDT
Astronomical Twilight 3:49 AM CDT 9:44 PM CDT
Moon 8:46 PM CDT (5/25) 6:01 AM CDT (5/25)
Length of Visible Light 15h 21m
Length of Day
14h 22m
Full, 100% of the Moon is Illuminated
May 25
Full
May 31
Last Quarter
Jun 8
New
Jun 16
First Quarter
Jun 23
Full

Hourly Weather History & Observations

Time (CDT) Temp. Dew Point Humidity Pressure Visibility Wind Dir Wind Speed Gust Speed Precip Events Conditions
12:52 AM 53.1 °F 48.0 °F 83% 30.30 in 10.0 mi Calm Calm - N/A   Clear
1:52 AM 50.0 °F 46.9 °F 89% 30.28 in 10.0 mi Calm Calm - N/A   Clear
2:52 AM 48.9 °F 46.0 °F 90% 30.28 in 10.0 mi Calm Calm - N/A   Clear
3:52 AM 48.0 °F 46.0 °F 93% 30.30 in 10.0 mi Calm Calm - N/A   Clear
4:52 AM 48.0 °F 45.0 °F 89% 30.29 in 10.0 mi Calm Calm - N/A   Clear
5:52 AM 46.9 °F 45.0 °F 93% 30.29 in 10.0 mi Calm Calm - N/A   Clear
6:52 AM 51.1 °F 48.0 °F 89% 30.31 in 10.0 mi Calm Calm - N/A   Clear
7:52 AM 57.0 °F 50.0 °F 77% 30.33 in 10.0 mi Calm Calm - N/A   Clear
8:52 AM 62.1 °F 48.9 °F 62% 30.35 in 10.0 mi ESE 3.5 mph - N/A   Clear
9:52 AM 66.0 °F 48.9 °F 54% 30.34 in 10.0 mi SE 5.8 mph - N/A   Clear
10:52 AM 68.0 °F 46.0 °F 45% 30.33 in 10.0 mi SE 4.6 mph - N/A   Clear
11:52 AM 72.0 °F 46.9 °F 41% 30.32 in 10.0 mi NE 4.6 mph - N/A   Clear
12:52 PM 73.0 °F 45.0 °F 37% 30.31 in 10.0 mi East 6.9 mph - N/A   Clear
1:52 PM 73.9 °F 44.1 °F 34% 30.29 in 10.0 mi NNE 4.6 mph - N/A   Clear
2:52 PM 75.9 °F 42.1 °F 30% 30.27 in 10.0 mi ENE 6.9 mph - N/A   Clear
3:52 PM 75.9 °F 41.0 °F 29% 30.26 in 10.0 mi North 8.1 mph - N/A   Clear
4:52 PM 75.9 °F 45.0 °F 33% 30.24 in 10.0 mi Variable 3.5 mph - N/A   Clear
5:52 PM 72.0 °F 51.1 °F 48% 30.22 in 10.0 mi ESE 5.8 mph - N/A   Clear
6:52 PM 70.0 °F 48.9 °F 47% 30.17 in 10.0 mi SE 8.1 mph - N/A   Clear
7:52 PM 64.9 °F 52.0 °F 63% 30.17 in 10.0 mi SSE 4.6 mph - N/A   Clear
8:52 PM 64.9 °F 50.0 °F 58% 30.18 in 10.0 mi Calm Calm - N/A   Clear
9:52 PM 61.0 °F 51.1 °F 70% 30.18 in 10.0 mi Calm Calm - N/A   Clear
10:52 PM 61.0 °F 50.0 °F 67% 30.20 in 10.0 mi Calm Calm - N/A   Clear
11:52 PM 57.9 °F 51.1 °F 78% 30.20 in 10.0 mi Calm Calm - N/A   Scattered Clouds